Flag for Germany Weather for the Past 2 Weeks in Leutkirch im Allgäu, Baden-Württemberg, Germany

Now
45 °F

Sunny.


Feels Like: 40 °F
Forecast: 33 / 37 °F
Wind: 8 mph from South

Location: Friedrichshafen Airport

Current Time: Feb 9, 2016 at 8:56:39 AM

Latest Report: Feb 9, 2016 at 8:20 AM


Visibility: 10 mi

Pressure: 29.68 "Hg (27.40 "Hg at 656m altitude)

Humidity: 71%

Dew point: 36 °F

Location of Leutkirch im AllgäuLocation

Historic Weather in Leutkirch im Allgäu — Graph

°F

Leutkirch im Allgäu Temperature Yesterday

Maximum temperature yesterday: 54 °F (at 5:50 PM)
Minimum temperature yesterday: 32 °F (at 5:20 AM)
Average temperature yesterday: 44 °F

High & Low Weather Summary for the Past Weeks

 TemperatureHumidityPressure
High55 °F (Feb 1, 1:50 PM)93% (Jan 25, 7:20 AM)30.48 "Hg (Jan 25, 7:20 AM)
Low28 °F (Jan 25, 7:20 AM)47% (Feb 7, 10:50 AM)29.59 "Hg (Feb 7, 10:50 AM)
Average41 °F78%30.18 "Hg
* Reported Jan 25 7:20 AM — Feb 9 7:20 AM, Leutkirch im Allgäu, Weather by CustomWeather, © 2016

Note: Actual official high and low records may vary slightly from our data, if they occured in-between our weather recording intervals... More about our weather records

Advertising

Leutkirch im Allgäu Weather History for the Previous 24 Hours

 ConditionsComfort  
Time TempWeatherWind HumidityBarometerVisibility
7:20 AM
Tue, Feb 9
46 °FClear.8 mph66%29.71 "Hg10 mi
6:50 AM46 °FClear.6 mph66%29.71 "Hg10 mi
6:20 AM45 °FClear.2 mph71%29.74 "Hg10 mi
5:50 AM43 °FClear.6 mph76%29.74 "Hg10 mi
5:20 AM45 °FPassing clouds.7 mph71%29.77 "HgN/A
4:50 AM45 °FPassing clouds.10 mph76%29.77 "HgN/A
4:20 AM43 °FPartly cloudy.13 mph81%29.80 "HgN/A
3:50 AM45 °FPassing clouds.14 mph76%29.80 "HgN/A
3:20 AM43 °FSprinkles. Overcast.13 mph81%29.83 "HgN/A
2:50 AM43 °FSprinkles. Mostly cloudy.17 mph76%29.83 "HgN/A
2:20 AM45 °FSprinkles. Mostly cloudy.15 mph71%29.83 "HgN/A
1:55 AM45 °FSprinkles. Mostly cloudy.17 mph71%29.86 "HgN/A
1:20 AM45 °FPassing clouds.9 mph71%29.83 "HgN/A
12:50 AM43 °FPassing clouds.6 mph81%29.83 "HgN/A
12:20 AM43 °FPassing clouds.8 mph81%29.86 "HgN/A
11:50 PM
Mon, Feb 8
45 °FPassing clouds.10 mph76%29.83 "HgN/A
11:20 PM45 °FSprinkles. Mostly cloudy.10 mph76%29.83 "HgN/A
10:59 PM45 °FRain showers. Mostly cloudy.9 mph81%29.83 "Hg6 mi
10:20 PM48 °FPartly cloudy.15 mph66%29.80 "HgN/A
9:50 PM48 °FMostly cloudy.20 mph66%29.80 "HgN/A
9:20 PM48 °FPassing clouds.23 mph66%29.80 "HgN/A
8:50 PM48 °FRain showers. Mostly cloudy.39 mph62%29.77 "HgN/A
8:20 PM50 °FPassing clouds.18 mph58%29.77 "HgN/A
7:50 PM52 °FSprinkles. Overcast.29 mph54%29.77 "HgN/A
7:20 PM52 °FMostly cloudy.25 mph54%29.74 "HgN/A
6:50 PM52 °FPassing clouds.29 mph54%29.74 "HgN/A
6:20 PM52 °FPassing clouds.22 mph54%29.74 "HgN/A
5:50 PM54 °FPassing clouds.20 mph51%29.71 "HgN/A
5:20 PM52 °FPartly sunny.14 mph50%29.68 "HgN/A
4:50 PM50 °FPartly sunny.10 mph58%29.68 "HgN/A
4:20 PM52 °FPassing clouds.8 mph50%29.65 "HgN/A
3:50 PM52 °FSprinkles. Overcast.9 mph50%29.68 "HgN/A
3:20 PM52 °FPassing clouds.8 mph47%29.68 "HgN/A
2:50 PM50 °FSunny.6 mph54%29.68 "Hg10 mi
2:20 PM50 °FSunny.13 mph50%29.68 "Hg10 mi
1:50 PM50 °FSunny.13 mph50%29.71 "Hg10 mi
1:20 PM50 °FPassing clouds.7 mph50%29.71 "HgN/A
12:50 PM48 °FSunny.6 mph54%29.68 "Hg10 mi
12:20 PM48 °FSunny.5 mph54%29.71 "Hg10 mi
11:50 AM46 °FSunny.3 mph57%29.74 "Hg10 mi
11:20 AM45 °FPassing clouds.5 mph61%29.74 "HgN/A
10:50 AM43 °FSunny.3 mph71%29.77 "Hg10 mi
10:20 AM41 °FSunny.2 mph76%29.77 "Hg10 mi
9:50 AM37 °FSunny.6 mph87%29.80 "Hg10 mi
9:20 AM37 °FSunny.No wind87%29.80 "Hg10 mi
8:50 AM36 °FSunny.1 mph87%29.83 "Hg10 mi
8:20 AM34 °FSunny.No wind87%29.83 "Hg10 mi
Weather by CustomWeather, © 2016

See weather overviewHow to use our weather pages